Wind_Speed
26 27 28 29 30 30 31 32 32 32 32 33 33 33 33 34 35 36 36 37 38 39 39 39 39 40 40 41 41 42 42 42 43 44 45 45 46 45 45 45 44 44 44 44
26 27 27 28 28 29 30 31 32 32 32 32 33 33 32 32 33 34 35 35 36 38 38 38 39 39 39 40 40 41 41 42 43 44 45 45 46 46 46 45 45 44 44 44
27 26 27 27 28 28 29 31 31 32 32 33 33 32 32 31 32 33 33 34 35 36 37 37 38 38 39 39 39 39 40 41 41 43 44 44 45 46 46 46 45 45 44 44
26 26 26 27 27 29 29 29 30 31 32 32 32 34 31 31 32 33 33 34 34 36 38 38 38 38 38 38 39 39 40 40 40 42 43 44 44 44 44 45 45 45 45 44
26 25 25 26 26 27 28 28 29 30 31 32 32 35 33 32 32 33 33 33 34 36 37 37 38 38 38 39 39 40 40 40 41 42 42 43 43 44 44 44 44 44 44 44
25 25 25 25 25 26 27 27 28 29 30 31 31 33 33 31 31 32 34 34 34 35 36 37 37 38 38 39 39 40 40 40 41 41 41 42 43 43 44 44 43 42 42 42
25 25 24 24 24 25 27 28 29 29 30 30 30 32 31 31 31 32 33 34 35 36 36 36 37 38 38 38 39 40 40 40 41 41 42 42 42 41 42 42 42 42 42 42
25 24 24 24 24 25 26 27 27 28 29 29 29 31 30 30 31 31 32 33 34 35 35 36 37 38 38 39 39 40 41 41 41 41 42 42 42 41 41 41 41 41 42 42
24 24 24 24 24 24 25 25 25 27 29 30 30 31 30 30 31 32 33 33 34 35 36 36 37 38 38 39 40 40 41 41 42 42 42 42 42 41 42 41 41 41 41 41
24 24 24 24 24 23 24 24 24 25 27 29 29 30 30 30 31 32 33 33 34 35 36 36 37 38 38 39 39 40 40 40 41 41 41 41 41 41 42 41 42 42 42 41
24 25 24 24 23 22 23 23 24 25 26 27 28 28 28 30 30 31 32 33 33 34 35 35 35 36 37 37 38 38 38 38 38 38 38 39 39 39 40 40 39 40 40 41
26 26 25 24 24 23 23 24 25 26 26 27 28 29 28 30 31 31 32 32 33 34 34 34 34 35 36 36 36 36 35 35 35 35 35 36 36 36 37 37 37 37 38 38
26 26 26 26 26 25 25 25 25 26 27 28 28 29 29 30 31 31 32 32 33 33 34 34 35 35 36 35 35 34 33 33 33 33 33 34 33 33 34 35 35 35 36 36
26 26 26 26 26 26 26 26 27 28 28 28 29 29 29 30 30 31 31 32 33 33 34 34 34 35 34 33 33 32 32 32 32 32 33 33 32 32 32 33 33 33 34 35
26 26 26 26 26 27 27 27 27 27 28 29 28 28 28 28 29 29 30 30 31 33 34 34 34 33 32 31 30 30 30 31 31 32 32 31 31 32 31 30 30 32 33 34
26 27 26 26 26 27 27 26 26 26 27 27 28 28 28 29 30 30 30 30 30 32 33 33 33 32 31 30 29 29 30 30 31 31 31 31 31 32 31 30 31 31 32 32
26 27 27 26 26 26 25 25 25 25 25 27 28 28 29 29 30 30 30 30 31 31 32 31 31 30 30 29 29 29 29 30 30 30 30 29 29 30 30 31 31 31 31 32
26 26 27 27 26 26 24 24 25 25 26 27 28 28 28 29 29 30 30 31 31 31 31 30 30 30 29 29 29 29 29 29 29 28 28 27 28 29 29 30 30 30 30 31
25 26 27 27 27 26 24 24 25 25 25 27 28 28 28 29 30 30 31 31 32 31 31 29 29 28 28 29 29 29 29 28 28 27 27 27 27 28 28 29 29 29 29 30
25 26 26 27 27 27 25 25 26 27 26 26 28 28 29 29 30 29 30 30 30 30 29 28 27 27 27 27 27 27 27 27 27 26 26 26 25 25 26 27 27 28 29 29
25 25 26 27 27 27 26 26 27 27 27 27 28 28 28 29 29 29 29 28 29 28 28 27 26 25 25 25 25 25 26 25 25 25 25 25 25 25 26 26 27 27 27 28
25 26 26 26 27 26 26 27 27 28 28 28 29 29 29 29 28 28 28 27 27 26 26 25 24 24 24 23 23 24 24 24 24 24 24 24 25 26 26 26 27 27 27 27
26 26 27 26 26 26 27 27 28 28 28 29 29 29 29 29 28 28 28 27 27 26 25 24 23 22 22 21 22 22 22 22 22 22 23 24 25 25 25 25 26 27 27 27
25 26 26 26 26 26 27 28 29 29 29 29 29 29 29 29 29 28 27 27 27 26 25 24 23 21 21 21 21 21 21 21 20 21 21 23 24 23 23 23 24 24 25 25
25 25 26 26 26 26 26 27 28 28 28 28 28 29 29 28 27 26 25 25 24 24 23 22 21 21 20 20 20 20 20 19 19 20 21 21 22 22 21 21 21 22 23 23
24 25 25 25 25 25 25 26 27 27 28 28 28 28 27 26 25 24 24 24 23 22 21 20 20 20 20 20 19 19 19 19 19 19 20 20 20 20 20 20 20 21 21 21
Wind_Direction
283 283 282 282 281 279 277 276 276 275 275 274 272 271 271 269 267 267 267 266 265 265 266 266 266 266 267 266 267 266 264 263 262 262 262 262 263 264 265 266 266 266 265 264
285 285 285 284 283 280 278 277 277 275 274 274 273 271 269 268 268 269 268 268 267 266 265 265 266 267 267 267 268 268 266 265 264 264 264 264 265 265 266 266 266 266 265 264
287 286 286 285 284 280 278 278 277 277 275 274 274 271 270 268 268 269 269 268 267 267 267 266 267 267 268 268 268 268 268 267 267 267 267 267 267 266 266 266 265 265 264 264
289 288 286 285 283 280 280 280 278 277 277 276 276 275 272 270 268 268 267 268 268 268 267 268 268 268 268 269 269 270 269 269 269 270 268 268 268 267 266 266 265 264 263 264
289 289 287 286 286 284 282 281 280 279 279 279 277 277 276 273 270 268 267 268 270 270 270 270 270 270 270 270 271 271 271 270 271 271 269 268 268 267 267 266 266 265 263 263
288 288 287 287 287 287 285 283 282 281 281 281 280 280 280 277 274 270 269 270 272 272 271 271 271 271 271 272 272 272 272 272 271 270 269 268 269 267 267 266 265 263 263 262
289 288 288 287 288 288 287 287 287 286 284 284 282 282 282 279 277 275 273 273 273 273 272 273 273 273 273 273 273 273 273 272 272 270 269 269 269 267 266 265 263 262 262 262
291 289 289 287 287 288 289 289 289 288 286 285 283 282 281 280 277 276 276 274 274 274 273 273 274 275 275 275 274 274 273 273 272 270 269 269 269 267 266 265 263 262 263 262
294 292 291 289 288 289 290 291 291 290 287 285 284 284 281 280 279 278 278 277 276 276 276 276 277 277 276 277 277 276 275 273 272 270 269 268 267 266 266 264 263 262 262 261
294 293 293 292 290 290 291 293 295 294 293 291 289 286 284 282 281 280 280 280 279 278 278 279 279 279 278 279 279 278 276 275 273 271 269 268 267 266 266 265 263 263 263 262
292 291 293 292 291 291 291 293 293 293 293 292 291 291 291 288 285 284 284 283 283 283 283 282 281 281 281 280 280 279 277 275 273 271 269 268 266 266 265 265 264 263 262 261
289 289 291 291 290 290 290 292 291 291 291 290 290 292 293 291 288 286 286 286 286 285 285 285 284 283 283 282 281 280 277 275 273 270 269 268 267 266 265 264 264 262 261 261
288 288 290 291 290 290 290 291 291 290 289 289 289 292 293 293 291 287 287 288 287 286 285 286 286 285 285 284 282 280 277 275 273 271 269 267 266 265 264 264 264 262 260 259
286 286 288 290 292 293 292 291 290 289 289 289 291 292 293 294 293 290 288 288 288 288 287 286 286 286 285 283 282 280 278 276 274 273 270 267 265 265 265 264 264 262 261 259
287 287 287 288 290 291 291 290 290 289 290 291 293 294 295 295 295 294 292 291 290 289 289 287 286 286 284 282 280 280 279 278 275 273 270 267 265 265 265 265 264 264 262 260
287 288 288 289 291 291 289 290 290 290 291 291 292 294 294 295 294 294 293 293 293 292 290 287 287 285 283 282 281 281 281 279 276 274 271 268 267 266 265 265 265 266 264 261
288 289 290 291 292 292 291 291 290 291 292 292 294 295 295 294 295 295 295 294 295 294 292 289 287 285 283 282 281 281 281 280 278 274 271 268 267 267 265 265 265 265 264 262
289 290 291 292 292 292 295 291 291 292 293 294 295 296 297 297 296 297 297 296 296 296 295 292 288 285 283 283 282 282 281 280 278 274 270 268 268 269 266 265 264 265 264 263
290 291 292 292 291 293 294 294 295 295 296 296 296 297 299 297 296 296 297 297 297 297 297 293 290 288 285 284 283 282 281 279 276 272 269 269 270 270 268 266 265 265 264 264
290 291 292 292 291 292 295 295 296 296 297 298 298 299 299 298 297 297 297 297 297 297 297 295 292 290 287 286 285 283 281 278 275 271 269 271 270 270 268 267 266 266 264 265
289 290 291 291 291 293 295 296 297 297 299 300 300 301 301 301 300 300 300 298 298 297 297 295 292 291 290 290 289 286 282 279 277 273 271 270 271 271 270 268 266 267 266 265
289 290 290 290 292 295 294 296 298 299 299 300 301 302 302 302 302 300 299 298 299 299 298 296 292 291 291 292 292 289 285 282 278 274 273 272 272 272 272 269 267 267 268 268
289 291 290 290 291 293 294 296 297 298 299 300 301 301 302 303 302 299 298 298 298 298 297 294 291 291 292 294 294 293 290 286 281 278 275 274 275 274 272 271 270 268 268 268
289 289 289 289 289 290 293 295 297 297 299 301 302 302 302 303 301 300 299 299 299 299 297 292 289 289 292 294 295 295 294 290 284 281 279 277 277 277 274 272 271 269 267 267
291 290 289 290 290 291 294 296 296 297 298 299 301 303 304 304 303 301 300 301 300 300 297 293 290 290 291 292 293 294 293 291 287 284 282 280 278 276 275 274 274 272 269 267
290 290 291 292 292 295 297 298 297 298 298 298 299 301 303 303 304 303 302 302 301 299 297 293 292 293 292 293 292 292 293 292 289 287 284 281 279 277 276 277 277 275 273 270
Height
5702 5702 5700 5699 5697 5696 5695 5694 5693 5694 5693 5692 5691 5691 5692 5691 5691 5691 5692 5693 5693 5693 5694 5695 5695 5696 5696 5697 5697 5697 5698 5699 5700 5701 5702 5702 5704 5704 5705 5705 5706 5707 5707 5708
5696 5694 5693 5691 5689 5688 5687 5686 5685 5685 5684 5683 5682 5683 5683 5683 5683 5683 5683 5683 5684 5684 5685 5685 5686 5686 5687 5687 5687 5687 5688 5688 5689 5690 5690 5691 5692 5693 5694 5694 5695 5695 5696 5697
5688 5688 5685 5684 5682 5680 5679 5678 5677 5676 5675 5675 5674 5675 5675 5675 5674 5674 5675 5674 5675 5675 5676 5676 5677 5677 5677 5677 5677 5677 5677 5678 5678 5678 5679 5679 5680 5681 5682 5683 5683 5684 5685 5685
5681 5680 5678 5677 5675 5673 5672 5670 5669 5667 5666 5666 5666 5664 5667 5667 5666 5666 5666 5666 5666 5666 5667 5667 5667 5667 5668 5668 5668 5667 5667 5667 5667 5667 5668 5668 5669 5670 5670 5671 5672 5673 5673 5674
5675 5673 5672 5670 5668 5666 5664 5663 5662 5660 5659 5658 5658 5656 5659 5658 5658 5658 5658 5658 5658 5657 5657 5657 5658 5658 5658 5658 5658 5657 5657 5657 5656 5656 5656 5657 5658 5658 5659 5659 5660 5661 5662 5663
5669 5667 5665 5663 5662 5659 5657 5656 5655 5653 5652 5651 5652 5649 5650 5650 5650 5650 5650 5649 5649 5649 5648 5648 5648 5648 5648 5648 5647 5647 5646 5646 5646 5646 5646 5646 5646 5647 5647 5648 5649 5650 5651 5652
5663 5661 5659 5657 5655 5654 5651 5650 5648 5645 5644 5645 5644 5642 5643 5642 5642 5642 5642 5641 5640 5640 5639 5639 5638 5638 5638 5638 5637 5636 5636 5635 5635 5635 5635 5635 5635 5635 5636 5636 5638 5639 5640 5642
5656 5656 5654 5651 5650 5647 5645 5644 5642 5640 5638 5638 5637 5636 5637 5635 5634 5633 5633 5632 5631 5631 5630 5629 5629 5628 5628 5627 5626 5626 5625 5625 5624 5624 5624 5624 5623 5624 5625 5625 5627 5628 5630 5631
5649 5649 5648 5646 5643 5642 5640 5638 5637 5634 5632 5631 5630 5630 5629 5627 5626 5625 5624 5623 5623 5622 5621 5620 5619 5618 5617 5616 5615 5614 5613 5613 5613 5612 5612 5612 5612 5613 5613 5614 5615 5617 5618 5620
5643 5643 5642 5640 5638 5636 5635 5633 5631 5628 5625 5623 5623 5622 5622 5620 5618 5617 5616 5615 5614 5613 5611 5610 5609 5607 5606 5605 5604 5602 5601 5601 5600 5600 5600 5601 5601 5601 5602 5603 5604 5606 5607 5609
5638 5637 5636 5634 5632 5631 5629 5628 5625 5622 5620 5618 5616 5618 5615 5612 5611 5609 5607 5606 5604 5603 5602 5600 5598 5597 5595 5594 5592 5591 5590 5589 5588 5588 5588 5589 5589 5590 5591 5591 5593 5594 5596 5597
5632 5630 5629 5629 5627 5624 5623 5621 5619 5617 5614 5612 5609 5612 5608 5605 5603 5601 5599 5597 5596 5594 5592 5591 5589 5587 5585 5583 5582 5580 5579 5578 5578 5577 5577 5578 5578 5579 5580 5581 5582 5583 5585 5586
5625 5624 5623 5622 5623 5620 5617 5615 5612 5610 5608 5605 5603 5605 5601 5598 5595 5593 5591 5589 5587 5585 5583 5581 5579 5577 5575 5573 5571 5570 5569 5568 5568 5567 5568 5568 5568 5569 5570 5571 5572 5573 5574 5576
5619 5618 5617 5616 5613 5611 5610 5608 5606 5603 5601 5599 5597 5596 5594 5590 5588 5585 5583 5581 5578 5576 5574 5572 5570 5568 5566 5564 5562 5561 5560 5559 5558 5558 5558 5558 5559 5560 5560 5561 5562 5563 5565 5566
5612 5611 5610 5608 5606 5604 5603 5601 5599 5596 5594 5592 5591 5588 5587 5583 5580 5578 5575 5572 5570 5568 5565 5563 5561 5559 5557 5555 5553 5552 5551 5550 5549 5549 5548 5549 5550 5551 5551 5552 5553 5554 5555 5557
5605 5604 5603 5602 5600 5597 5596 5594 5592 5590 5588 5585 5583 5582 5580 5576 5573 5570 5568 5565 5562 5559 5557 5554 5552 5550 5548 5547 5545 5544 5543 5542 5541 5540 5540 5540 5541 5541 5542 5543 5544 5545 5546 5547
5599 5597 5596 5595 5592 5590 5590 5589 5586 5584 5582 5579 5576 5575 5572 5569 5566 5563 5560 5557 5554 5551 5548 5546 5543 5541 5540 5538 5537 5536 5534 5533 5532 5531 5531 5531 5532 5533 5534 5535 5536 5537 5537 5538
5593 5590 5588 5587 5586 5584 5586 5582 5579 5577 5575 5572 5570 5567 5564 5561 5558 5556 5552 5549 5546 5543 5540 5538 5535 5533 5532 5530 5529 5527 5526 5525 5524 5523 5523 5523 5524 5525 5525 5526 5527 5528 5528 5530
5586 5584 5582 5580 5578 5577 5578 5575 5572 5570 5569 5566 5563 5560 5557 5554 5551 5549 5545 5541 5538 5535 5532 5530 5527 5525 5523 5522 5520 5519 5518 5516 5516 5516 5516 5516 5516 5516 5517 5518 5518 5519 5520 5521
5580 5578 5576 5574 5571 5570 5572 5569 5565 5564 5562 5559 5556 5553 5550 5546 5544 5542 5538 5534 5531 5527 5524 5522 5519 5517 5515 5514 5512 5510 5509 5509 5508 5508 5509 5508 5509 5509 5509 5509 5510 5510 5511 5512
5574 5572 5570 5567 5564 5564 5564 5561 5559 5558 5556 5552 5548 5545 5542 5539 5536 5534 5530 5527 5523 5520 5517 5514 5512 5510 5508 5506 5504 5503 5502 5502 5501 5501 5501 5501 5501 5502 5502 5502 5502 5503 5503 5504
5567 5565 5563 5561 5559 5560 5557 5554 5552 5550 5547 5544 5541 5538 5535 5532 5529 5525 5522 5519 5516 5513 5510 5507 5505 5504 5502 5500 5498 5497 5495 5495 5494 5494 5494 5494 5494 5494 5494 5494 5495 5495 5495 5496
5560 5559 5556 5556 5556 5552 5549 5547 5545 5542 5540 5537 5534 5531 5528 5525 5522 5518 5515 5512 5509 5506 5504 5501 5499 5498 5496 5494 5492 5491 5489 5488 5487 5487 5487 5487 5487 5486 5486 5487 5487 5487 5487 5488
5554 5552 5550 5548 5547 5545 5542 5540 5537 5535 5532 5530 5527 5524 5521 5518 5515 5512 5508 5505 5502 5500 5497 5495 5493 5492 5490 5488 5486 5485 5483 5482 5481 5481 5481 5480 5480 5479 5479 5479 5479 5479 5480 5480
5547 5545 5543 5541 5540 5538 5536 5533 5530 5528 5525 5522 5520 5517 5514 5511 5508 5505 5502 5499 5496 5493 5491 5488 5487 5486 5484 5482 5481 5479 5478 5476 5475 5475 5474 5474 5473 5473 5472 5472 5472 5472 5472 5472
5541 5538 5536 5535 5533 5531 5529 5526 5523 5521 5518 5516 5513 5510 5507 5504 5501 5498 5495 5492 5490 5487 5485 5483 5481 5480 5478 5477 5475 5474 5472 5471 5470 5469 5468 5467 5467 5466 5466 5466 5465 5465 5465 5465